Retour au catalogue

KUIPER-00062

ActifCommunicationsLEO
NORAD 64522·PAYLOAD·🇺🇸 United States

Lancé Jun 23, 2025 depuis Cape Canaveral Space Force Station

Loading…

Prochains Passages (prochaines 24 heures)

TLE

FraisSource: CelesTrak SupGP

Époque: Sep 14, 2026, 23:04 UTC

1 64522C 25134Y   26257.96164352 -.00002594  00000+0 -33972-3 0  2577
2 64522  51.8940 113.5908 0000859 104.8234 122.0779 14.79921238    14

Suivez KUIPER-00062 en temps réel avec AllMySat

Download on the App Store